Regional Weather Roundup
Issued by NWS Newport/Morehead, NC

Current Version | Previous Version | Text Only | Print | Product List | Glossary On
Versions: 1 2 3 4 5 6 7 8 9 10 11 12 13 14 15 16 17 18 19 20 21 22 23 24 25 26 27 28 29 30 31 32 33 34 35 36 37 38 39 40 41 42 43 44 45 46 47 48 49 50
000
ASUS42 KMHX 301810
RWRMHX
WEATHER ROUNDUP FOR EASTERN NORTH CAROLINA
NATIONAL WEATHER SERVICE NEWPORT/MOREHEAD CITY NC
100 PM EST FRI JAN 30 2015

NOTE: "FAIR" INDICATES FEW OR NO CLOUDS BELOW 12,000 FEET
WITH NO SIGNIFICANT WEATHER AND/OR OBSTRUCTIONS TO VISIBILITY

NCZ015>017-031-032-045>047-102-103-301900-
NORTH COAST

CITY           SKY/WX    TMP DP  RH WIND       PRES   REMARKS
EDENTON        CLOUDY    44  32  63 N10       30.02F
ELIZABETH CITY CLOUDY    42  28  57 NW17      30.01F
KITTY HAWK     CLOUDY    42  30  61 N12G21    29.98F
MANTEO         CLOUDY    43  32  65 NW10G17   30.00S

$$

NCZ045>047-081-094-103-104-301900-
CENTRAL COAST

CITY           SKY/WX    TMP DP  RH WIND       PRES   REMARKS
FRISCO         CLOUDY    42  36  79 VRB7      29.99S
SWANQUARTER    NOT AVBL

$$

NCZ095-097-098-100-101-301900-
SOUTHERN COAST

CITY           SKY/WX    TMP DP  RH WIND       PRES   REMARKS
BEAUFORT       CLOUDY    48  31  51 N21G30    30.01S
CEDAR ISLAND   NOT AVBL
JACKSONVILLE   CLOUDY    52  26  36 NW17G26   30.04F
PINEY ISLAND     N/A    N/A N/A N/A MISG      30.00F
WILMINGTON     SUNNY     51  27  39 NW21G30   30.06S


$$

NCZ011>013-027>030-043-044-078>080-089-090>093-098-301900-
COASTAL PLAIN

CITY           SKY/WX    TMP DP  RH WIND       PRES   REMARKS
AHOSKIE        CLOUDY    44  23  43 NW7       30.03F
CLINTON        PTSUNNY   47  25  42 NW12G21   30.09S
ELIZABETHTOWN  MOSUNNY   50  23  34 NW13G26   30.09S
GOLDSBORO      MOSUNNY   47  25  42 NW16G25   30.07S
GREENVILLE     PTSUNNY   46  23  39 N13G23    30.06F
HAVELOCK       CLOUDY    49  26  41 NW22      30.03S
KENANSVILLE    PTSUNNY   48  22  36 NW14G21   30.08F
KINSTON        MOSUNNY   48  23  37 NW21G28   30.06F
NEW BERN       CLOUDY    50  25  37 NW14G23   30.04S
RICHLANDS      PTSUNNY   48  25  40 NW12G21   30.06S
ROCKY MOUNT    MOSUNNY   49  19  30 NW16G26   30.06F
WASHINGTON     PTSUNNY   46  25  43 NW12G18   30.03F
WHITEVILLE     SUNNY     51  25  36 W8G23     30.08F

$$

AMZ130-135-150-152-154-156-158-170-250-252-270-ANZ085-086-088-633-658-670-301900-
MARINE OBSERVATIONS

STATION/POSITION TIME  TEMP    WIND        PRES    WAVE   SWELL
                       AIR SEA DIR/SP/G            HT/PER HT/PER
                 (UTC) (F)     (DEG/KT/KT) (MB)    (FT/S) (FT/S)
CHESAPEAKE LIGHT 1700   40     340/ 21/ 23 1015.8
64 E VA BEACH    1800   42 49  340/ 25/ 29 1013.0    6/ 6   2/10
DUCK             1800   42 44  340/ 18/ 23 1014.6
2 E DUCK         1800      44                N/A     3/ 4
10 NE DUCK       1800      45                N/A     4/ 5
OREGON INLET     1800   42 42  340/ 15/ 22 1015.4
13E OREGON INLT  1800      43                N/A     5/ 5
HATTERAS CG      1800   42 46  350/ 16/ 19 1015.9
DIAMOND BUOY     1800   45 68  340/ 25/ 31 1014.3    5/ 5   2/ 9
17 S OCRACOKE    NOT AVBL
CAPE LOOKOUT     1800   47     350/ 17/ 22 1015.8
BEAUFORT LAB     1800   48 47  340/ 15/ 21 1015.3
27 SE WRIGHTSVLE NOT AVBL
5 SE WRIGHTSVLE  1700   49 52  330/ 21/ 23 1017.2
225 S CAPE HAT   1748   68 72  280/ 33/ 39 1011.4   10/ 7   2/11
41 SE CHARLESTON 1800   55 68  320/ 19/ 25 1018.5    5/ 5   2/12

$$



USA.gov is the U.S. government's official web portal to all federal, state and local government web resources and services.